Location: A�t Bou Chrif
(32.7193°N, 5.2385°W)
Time: 00:46:51
(UTC+00:00)

Cosmos 1605 Rocket - Pass Details

Date: 08 August 2020
Orbit: 945 x 1005 km, 82.9° (Epoch: 18 September)

Event Time Altitude Azimuth Distance (km) Brightness Sun altitude
Exits shadow 22:05:45 60° 249° (WSW) 1,085 4.2 -31.0°
Maximum altitude 22:06:19 63° 277° (W) 1,059 4.2 -31.0°
Drops below altitude 10° 22:12:23 10° 359° (N) 2,676 6.9 -31.8°
Sets 22:14:54 0° 2° (N) 3,621 7.6 -32.2°
